RADUGA-1M 2 [+]

Last updated on Jan. 18, 2020, 4:38 a.m. UTC

1 36358U 10002A   20017.46148226 -.00000188  00000-0  00000-0 0  9999
2 36358   0.0312 196.2288 0002516 130.4829  40.7444  1.00272265 26602
UTC
Height (km)
Latitude
Longitude
Inclination
Orbital Period
UTC large
Height (km)
Speed (km/s)
/
Latitude / Longitude
Inclination (degrees)
Orbital Period (minutes)
Azimuth
Elevation
Range (km)
Doppler Factor
iOS Compass Heading
iOS Angle

Next 30 passes for location: Hong Kong

Rise time Rise Azimuth (degrees) Set time Set Azimuth (degrees) Duration Max altitude (degrees)

No matching passes for this satellites